Regional Weather Roundup
Issued by NWS

Home | Current Version | Previous Version | Graphics & Text | Print | Product List | Glossary On
Versions: 1 2 3 4 5 6 7 8 9 10 11 12 13 14 15 16 17 18 19 20 21 22 23 24 25 26 27 28 29 30 31 32 33 34 35 36 37 38 39 40 41 42 43 44 45 46 47 48 49 50
000
ASUS43 KLSX 292107
RWRMO

WEATHER SUMMARY FOR MISSOURI
NATIONAL WEATHER SERVICE SPRINGFIELD MO
400 PM CDT MON AUG 29 2016

NOTE: "FAIR" INDICATES FEW OR NO CLOUDS BELOW 12,000 FEET WITH NO
       SIGNIFICANT WEATHER AND/OR OBSTRUCTIONS TO VISIBILITY.
       CURRENT SKY AND/OR WEATHER CONDITIONS ARE NOT AVAILABLE FOR
       CHILLICOTHE AND FARMINGTON.

MOZ001>031-035>038-043-044-053-054-292200-
...NORTHERN AND WESTERN MISSOURI...

CITY           SKY/WX    TMP DP  RH WIND       PRES   REMARKS
KANSAS CTY INT PTSUNNY   87  69  54 S6        30.12F HX  91
KANSAS C DTWN  MOSUNNY   89  67  47 SE10      30.10F HX  92
LEE`S SUMMIT   MOSUNNY   86  71  60 NE13      30.13F HX  91
ST JOSEPH      PTSUNNY   90  70  51 E6        30.11F HX  95
CHILLICOTHE      N/A     90  73  57 S9        30.13F HX  98
KIRKSVILLE     MOSUNNY   88  71  57 E6        30.15F HX  94

$$
MOZ066>068-077>081-088>096-101>105-292200-
...SOUTHWEST MISSOURI...

CITY           SKY/WX    TMP DP  RH WIND       PRES   REMARKS
SPRINGFIELD    MOSUNNY   91  66  43 NE10      30.11F HX  93
JOPLIN         MOSUNNY   87  71  58 NE8G18    30.10F HX  93
BRANSON        PTSUNNY   90  70  51 S9        30.13F HX  95

$$
MOZ032>034-039>042-045>050-055>058-069>072-292200-
...CENTRAL MISSOURI...

CITY           SKY/WX    TMP DP  RH WIND       PRES   REMARKS
COLUMBIA       CLOUDY    87  76  69 NE7       30.13F HX  97
JEFFERSON CITY MOSUNNY   90  72  55 E7        30.11F HX  97
ROLLA          MOSUNNY   89  72  56 E9        30.14F HX  96
SEDALIA        MOSUNNY   86  70  58 E5        30.14F HX  90
WHITEMAN AFB   PTSUNNY   90  71  53 SE5       30.11F HX  95
OSAGE BEACH    SUNNY     89  71  55 SE7       30.13F HX  95

$$
MOZ051-052-059>065-292200-
...EAST CENTRAL MISSOURI...

CITY           SKY/WX    TMP DP  RH WIND       PRES   REMARKS
ST LOUIS INTL  MOSUNNY   93  70  46 S7        30.12F HX  99
SPIRIT OF STL  PTSUNNY   92  73  53 E9        30.10F HX 100
ST CHARLES     MOSUNNY   91  74  57 VRB6      30.10F HX 100

$$
MOZ072>076-082>087-097>100-106>115-292200-
...SOUTH CENTRAL AND SOUTHEAST MISSOURI...

CITY           SKY/WX    TMP DP  RH WIND       PRES   REMARKS
CAPE GIRARDEAU SUNNY     91  71  51 E10       30.10F HX  97
FARMINGTON     MOSUNNY   91  72  53 VRB5      30.14F HX  98
POPLAR BLUFF   SUNNY     91  74  57 NE7       30.09F HX 100
WEST PLAINS    SUNNY     90  70  51 E6        30.15F HX  95

$$



USA.gov is the U.S. government's official web portal to all federal, state and local government web resources and services.